Date String (YYYY-MM-DD hh:mm:ss) UTC,Instrument flags,Ambient pressure (hPa),Sample flow (lpm),Bypass flow (lpm),Sample temperature (°C),Ambient temperature (°C),ASC tube jacket temperature (°C),LED temperature (°C),Box temperature (°C),Sample RH (%),Span deviation,Mass concentration (μg/m³),Mass concentration (μg/m³),Mass concentration (μg/m³)
DateTimeUTC,F1_M11,P_M11,Q1_M11,Q2_M11,T1_M11,T2_M11,T3_M11,T4_M11,T5_M11,U1_M11,ZSPAN_M11,X2_M11,X0_M11,X1_M11
2023-04-29 12:00:00,,0833.0,5.00,0.00,23.3,22.0,00.0,31.6,24.9,12.5,0000.0,0004.43,0013.46,0002.05
2023-04-29 12:01:00,,0833.0,5.01,0.00,23.3,22.0,00.0,31.6,24.8,12.6,0000.0,0004.44,0013.51,0002.04
2023-04-29 12:02:00,,0833.0,5.00,0.00,23.3,22.0,00.0,31.6,24.9,12.7,0000.0,0004.43,0013.44,0002.04
2023-04-29 12:03:00,,0833.1,5.00,0.00,23.3,22.1,00.0,31.6,24.9,12.6,0000.0,0004.46,0014.00,0002.05
2023-04-29 12:04:00,,0833.4,5.00,0.00,23.4,22.1,00.0,31.6,24.9,12.6,0000.0,0004.44,0014.20,0002.06
2023-04-29 12:05:00,,0833.1,4.99,0.00,23.4,22.1,00.0,31.6,24.9,12.6,0000.0,0004.47,0014.07,0002.05
2023-04-29 12:06:00,,0833.0,5.01,0.00,23.4,22.1,00.0,31.6,24.9,12.7,0000.0,0004.49,0013.62,0002.07
2023-04-29 12:07:00,,0833.1,5.02,0.00,23.4,22.1,00.0,31.6,24.9,12.7,0000.0,0004.55,0014.03,0002.08
2023-04-29 12:08:00,,0833.0,4.99,0.00,23.4,22.1,00.0,31.7,24.9,12.6,0000.0,0004.53,0014.13,0002.08
2023-04-29 12:09:00,,0833.3,4.99,0.00,23.4,22.1,00.0,31.7,24.9,12.6,0000.0,0004.57,0014.22,0002.12
2023-04-29 12:10:00,,0833.2,5.01,0.00,23.4,22.1,00.0,31.7,25.0,12.6,0000.0,0004.55,0014.58,0002.12
2023-04-29 12:11:00,,0833.3,5.02,0.00,23.4,22.1,00.0,31.7,25.0,12.9,0000.0,0004.54,0014.31,0002.13
2023-04-29 12:12:00,,0833.3,5.00,0.00,23.4,22.1,00.0,31.7,25.0,13.0,0000.0,0004.50,0014.17,0002.13
2023-04-29 12:13:00,,0833.4,5.00,0.00,23.4,22.1,00.0,31.7,25.0,12.9,0000.0,0004.44,0013.99,0002.10
2023-04-29 12:14:00,,0833.1,4.99,0.00,23.4,22.1,00.0,31.7,25.0,13.3,0000.0,0004.39,0013.62,0002.08
2023-04-29 12:15:00,,0833.1,5.00,0.00,23.4,22.1,00.0,31.7,25.0,13.7,0000.0,0004.39,0013.32,0002.09
2023-04-29 12:16:00,,0833.2,5.01,0.00,23.4,22.0,00.0,31.7,25.0,14.0,0000.0,0004.36,0012.96,0002.11
2023-04-29 12:17:00,,0833.2,5.01,0.00,23.4,22.0,00.0,31.7,25.0,14.3,0000.0,0004.37,0012.31,0002.11
2023-04-29 12:18:00,,0833.2,5.00,0.00,23.4,22.0,00.0,31.7,25.0,14.7,0000.0,0004.36,0012.16,0002.11
2023-04-29 12:19:00,,0833.2,5.00,0.00,23.4,22.0,00.0,31.7,25.0,14.9,0000.0,0004.38,0011.96,0002.12
2023-04-29 12:20:00,,0833.2,5.00,0.00,23.4,22.0,00.0,31.7,25.0,14.8,0000.0,0004.33,0012.14,0002.09
2023-04-29 12:21:00,,0833.2,5.00,0.00,23.4,21.9,00.0,31.7,25.0,14.9,0000.0,0004.30,0012.32,0002.08
2023-04-29 12:22:00,,0833.2,4.99,0.00,23.4,21.9,00.0,31.7,25.0,15.1,0000.0,0004.24,0011.81,0002.10
2023-04-29 12:23:00,,0833.2,4.99,0.00,23.4,21.9,00.0,31.7,25.0,15.4,0000.0,0004.25,0011.88,0002.10
2023-04-29 12:24:00,,0833.2,5.00,0.00,23.4,21.9,00.0,31.7,25.0,15.6,0000.0,0004.30,0011.99,0002.13
2023-04-29 12:25:00,,0833.2,5.00,0.00,23.4,21.9,00.0,31.7,25.0,15.9,0000.0,0004.28,0011.92,0002.12
2023-04-29 12:26:00,,0833.2,5.01,0.00,23.4,21.9,00.0,31.7,24.9,16.3,0000.0,0004.30,0012.58,0002.13
2023-04-29 12:27:00,,0833.3,5.01,0.00,23.4,21.9,00.0,31.7,25.0,16.6,0000.0,0004.28,0012.15,0002.12
2023-04-29 12:28:00,,0833.3,5.01,0.00,23.4,21.9,00.0,31.7,24.9,16.8,0000.0,0004.24,0012.10,0002.13
2023-04-29 12:29:00,,0833.3,4.98,0.00,23.4,21.9,00.0,31.7,24.9,16.9,0000.0,0004.25,0012.11,0002.15
2023-04-29 12:30:00,,0833.3,5.01,0.00,23.4,21.9,00.0,31.7,25.0,16.9,0000.0,0004.19,0012.02,0002.15
2023-04-29 12:31:00,,0833.3,5.00,0.00,23.3,21.9,00.0,31.7,25.0,16.5,0000.0,0004.19,0011.88,0002.17
2023-04-29 12:32:00,,0833.3,4.99,0.00,23.3,21.9,00.0,31.7,25.0,16.5,0000.0,0004.15,0010.88,0002.20
2023-04-29 12:33:00,,0833.3,4.99,0.00,23.3,21.9,00.0,31.7,25.0,16.2,0000.0,0004.22,0011.75,0002.21
2023-04-29 12:34:00,,0833.4,5.02,0.00,23.3,21.9,00.0,31.7,25.0,16.2,0000.0,0004.27,0012.98,0002.25
2023-04-29 12:35:00,,0833.4,4.98,0.00,23.3,21.9,00.0,31.7,24.9,16.0,0000.0,0004.29,0013.11,0002.27
2023-04-29 12:36:00,,0833.4,5.00,0.00,23.3,21.8,00.0,31.7,24.9,16.0,0000.0,0004.32,0013.17,0002.30
2023-04-29 12:37:00,,0833.4,5.01,0.00,23.3,21.8,00.0,31.7,24.9,16.0,0000.0,0004.29,0012.21,0002.30
2023-04-29 12:38:00,,0833.4,5.00,0.00,23.3,21.9,00.0,31.7,24.9,16.4,0000.0,0004.26,0011.98,0002.31
2023-04-29 12:39:00,,0833.4,4.99,0.00,23.3,21.8,00.0,31.7,24.9,16.7,0000.0,0004.28,0012.01,0002.31
2023-04-29 12:40:00,,0833.4,4.99,0.00,23.3,21.8,00.0,31.7,24.9,16.9,0000.0,0004.35,0012.27,0002.33
2023-04-29 12:41:00,,0833.5,5.00,0.00,23.3,21.8,00.0,31.7,24.9,16.6,0000.0,0004.36,0012.51,0002.35
2023-04-29 12:42:00,,0833.4,5.00,0.00,23.3,21.8,00.0,31.7,24.9,16.7,0000.0,0004.42,0012.66,0002.39
2023-04-29 12:43:00,,0833.4,5.00,0.00,23.3,21.8,00.0,31.7,24.9,16.8,0000.0,0004.45,0012.96,0002.45
2023-04-29 12:44:00,,0833.4,5.00,0.00,23.3,21.8,00.0,31.7,24.9,16.8,0000.0,0004.46,0013.07,0002.53
2023-04-29 12:45:00,,0833.4,5.00,0.00,23.3,21.8,00.0,31.7,24.9,16.7,0000.0,0004.51,0011.88,0002.62
2023-04-29 12:46:00,,0833.4,5.00,0.00,23.3,21.8,00.0,31.7,24.9,16.6,0000.0,0004.49,0011.23,0002.69
2023-04-29 12:47:00,,0833.4,5.01,0.00,23.3,21.8,00.0,31.7,24.9,16.5,0000.0,0004.50,0011.18,0002.77
2023-04-29 12:48:00,,0833.4,5.01,0.00,23.3,21.8,00.0,31.7,24.9,16.5,0000.0,0004.58,0011.56,0002.86
2023-04-29 12:49:00,,0833.5,4.99,0.00,23.3,21.8,00.0,31.7,24.9,16.7,0000.0,0004.68,0012.03,0002.95
2023-04-29 12:50:00,,0833.4,4.99,0.00,23.3,21.9,00.0,31.7,24.9,16.9,0000.0,0004.78,0012.16,0003.07
2023-04-29 12:51:00,,0833.4,5.00,0.00,23.3,21.9,00.0,31.7,24.9,16.9,0000.0,0004.77,0011.97,0003.16
2023-04-29 12:52:00,,0833.4,5.01,0.00,23.3,21.9,00.0,31.7,24.9,16.7,0000.0,0004.78,0011.69,0003.21
2023-04-29 12:53:00,,0833.4,5.00,0.00,23.3,21.9,00.0,31.7,24.9,16.5,0000.0,0004.83,0011.71,0003.26
2023-04-29 12:54:00,,0833.4,5.01,0.00,23.3,21.9,00.0,31.7,24.9,16.5,0000.0,0004.86,0011.42,0003.30
2023-04-29 12:55:00,,0833.5,5.00,0.00,23.3,21.9,00.0,31.7,24.9,16.4,0000.0,0004.94,0011.02,0003.34
2023-04-29 12:56:00,,0833.4,5.00,0.00,23.3,21.9,00.0,31.6,25.0,16.4,0000.0,0004.96,0010.85,0003.37
2023-04-29 12:57:00,,0833.4,4.99,0.00,23.3,21.9,00.0,31.7,24.9,16.5,0000.0,0005.00,0010.92,0003.40
2023-04-29 12:58:00,,0833.4,5.00,0.00,23.3,22.0,00.0,31.7,24.9,16.6,0000.0,0005.04,0010.98,0003.44
2023-04-29 12:59:00,,0833.4,5.00,0.00,23.3,22.0,00.0,31.7,25.0,16.5,0000.0,0005.09,0010.99,0003.46
